Home > Weather > Uster > Past weeks

Flag for Switzerland Weather for the Past 2 Weeks in Uster, Zurich, Switzerland

Now
34 °F

Chilly.


Feels Like: 26 °F
Forecast: 26 / 44 °F
Wind: 9 mph from Southwest

Location: Zuerich-Fluntern

Current Time: Feb 11, 2016 at 4:18:16 AM

Latest Report: Feb 11, 2016 at 2:00 AM


Visibility: N/A

Pressure: 29.82 "Hg

Humidity: 73%

Dew point: 26 °F

Location of UsterLocation

Historic Weather in Uster — Graph

°F

Uster Temperature Yesterday

Maximum temperature yesterday: 38 °F (at 3:00 PM)
Minimum temperature yesterday: 32 °F (at 8:00 AM)
Average temperature yesterday: 35 °F

High & Low Weather Summary for the Past Weeks

 TemperatureHumidityPressure
High56 °F (Feb 1, 1:00 PM)97% (Jan 30, 5:00 AM)30.51 "Hg (Jan 30, 5:00 AM)
Low32 °F (Feb 10, 8:00 AM)51% (Feb 8, 4:00 PM)29.32 "Hg (Feb 9, 6:00 PM)
Average43 °F78%30.12 "Hg
* Reported Jan 27 5:00 AM — Feb 11 2:00 AM, Uster, Weather by CustomWeather, © 2016

Note: Actual official high and low records may vary slightly from our data, if they occured in-between our weather recording intervals... More about our weather records

Advertising

Uster Weather History for the Previous 24 Hours

 ConditionsComfort  
Time TempWeatherWind HumidityBarometerVisibility
2:00 AM
Thu, Feb 11
34 °FChilly.9 mph73%29.82 "HgN/A
1:00 AM34 °FChilly.13 mph73%29.81 "HgN/A
12:00 AM34 °FChilly.12 mph73%29.80 "HgN/A
10:00 PM
Wed, Feb 10
35 °FChilly.12 mph66%29.77 "HgN/A
9:00 PM36 °FChilly.15 mph64%29.75 "HgN/A
8:00 PM36 °FChilly.15 mph67%29.75 "HgN/A
7:00 PM36 °FChilly.14 mph63%29.73 "HgN/A
6:00 PM36 °FChilly.13 mph67%29.71 "HgN/A
5:00 PM36 °FChilly.18 mph67%29.69 "HgN/A
4:00 PM37 °FChilly.14 mph65%29.66 "HgN/A
3:00 PM38 °FChilly.17 mph64%29.65 "HgN/A
2:00 PM37 °FChilly.16 mph65%29.64 "HgN/A
1:00 PM35 °FChilly.13 mph78%29.65 "HgN/A
12:00 PM36 °FChilly.17 mph70%29.65 "HgN/A
11:00 AM35 °FChilly.14 mph72%29.65 "HgN/A
10:00 AM34 °FChilly.14 mph78%29.63 "HgN/A
9:00 AM33 °FChilly.14 mph85%29.63 "HgN/A
8:00 AM32 °FChilly.14 mph95%29.61 "HgN/A
7:00 AM32 °FChilly.14 mph95%29.58 "HgN/A
6:00 AM32 °FChilly.13 mph94%29.56 "HgN/A
4:00 AM34 °FChilly.17 mph81%29.53 "HgN/A
Weather by CustomWeather, © 2016

See weather overviewHow to use our weather pages